SCP
1 1 0 0 0 0 0 0 0 0 0 0 0 0 0 0 0 0 0 1 0 1 1 1 1 1 1 1 0 0 1 1 1 1 1 0 0 0 0 0 0 0 -0
2 1 1 0 0 0 0 0 0 0 0 0 0 0 0 0 0 0 0 0 1 1 1 1 1 1 1 1 1 1 1 1 1 1 1 1 0 0 0 0 0 0 0
1 2 1 1 1 2 1 1 1 1 1 1 0 0 0 0 0 0 1 0 1 1 1 1 1 1 1 1 1 1 1 1 1 0 1 1 1 0 0 0 0 0 0
2 3 2 1 1 1 1 1 2 1 1 0 0 0 0 0 0 0 1 1 1 1 1 1 1 1 1 1 2 2 2 2 1 1 1 1 1 1 1 0 0 0 0
1 4 2 2 2 2 2 1 1 1 2 2 1 1 1 1 0 0 0 0 1 1 1 1 1 1 1 2 2 2 2 2 2 1 1 1 1 1 1 0 0 0 0
0 3 2 1 2 5 4 2 3 2 3 2 2 1 1 1 1 1 2 2 2 2 2 2 2 1 1 1 1 2 2 2 2 2 2 1 1 1 1 0 0 0 0
0 0 0 1 0 2 1 0 1 1 -1 0 1 1 1 1 1 2 2 1 1 1 1 2 2 4 3 1 1 1 1 2 2 2 2 2 1 1 1 0 0 0 0
0 0 0 0 1 0 1 0 0 2 0 1 1 2 1 0 0 0 0 1 2 2 1 1 1 1 2 3 2 1 2 1 2 2 1 2 1 1 1 1 0 0 0
0 0 0 0 0 1 1 0 -0 1 -0 0 1 1 0 0 0 0 -0 0 0 0 1 1 1 2 1 2 2 2 2 2 1 1 1 1 1 1 1 1 0 0 0
0 0 0 -0 -0 0 1 1 1 1 1 1 0 1 1 0 0 0 0 0 0 0 0 0 0 1 1 2 2 2 1 1 1 1 1 1 1 1 0 0 0 1 1
0 0 0 -0 0 0 1 1 1 2 1 1 1 1 1 1 1 1 0 0 0 0 0 0 0 1 0 0 1 1 0 1 1 1 0 0 1 1 1 1 0 1 1
1 1 1 1 1 1 1 1 1 1 1 1 1 0 0 0 0 0 0 0 0 0 0 0 0 0 0 0 0 0 0 0 0 0 0 0 0 0 0 0 0 1 1
3 2 2 2 0 -0 0 1 1 1 1 1 1 1 1 0 0 0 0 0 0 0 0 0 0 0 0 0 0 0 0 0 0 0 0 0 0 0 0 0 0 1 1
3 2 2 0 2 1 1 1 1 1 1 1 1 1 1 0 0 0 0 0 0 0 0 0 0 0 0 0 0 0 0 0 0 0 0 0 0 0 0 0 0 0 0
2 3 1 0 0 1 1 1 1 1 1 1 1 1 1 0 0 0 0 0 0 0 0 0 0 0 0 0 0 0 0 0 0 0 0 0 0 0 0 0 0 0 0
1 0 1 1 1 1 1 1 1 1 1 1 1 0 0 0 0 0 0 0 0 0 0 0 0 0 0 0 0 0 0 0 0 0 0 0 0 0 0 0 0 0 0
1 2 2 2 2 1 2 3 2 1 1 1 0 0 0 0 0 0 0 0 0 0 0 0 0 0 0 0 0 0 0 0 0 -0 0 0 -0 0 0 0 0 0 0
3 2 1 1 1 1 1 2 1 0 0 0 0 0 0 0 0 0 0 0 0 0 0 0 0 0 0 0 0 0 0 0 0 0 0 0 -0 -0 0 0 0 0 0
3 2 2 2 1 1 1 1 1 0 0 0 0 0 0 0 0 0 0 0 0 0 0 0 0 0 0 0 0 0 0 0 0 0 0 0 0 0 0 0 0 0 0
0 0 0 0 0 0 0 0 0 1 1 1 1 0 0 0 0 0 0 0 0 0 0 0 0 0 0 0 0 0 0 0 0 0 0 0 0 0 0 0 0 0 0
0 0 0 0 0 0 0 0 0 0 0 0 0 0 0 1 1 0 1 1 0 0 0 0 0 0 0 0 0 0 0 0 0 0 0 0 0 0 0 0 0 0 0
0 0 0 0 0 0 0 0 0 0 0 0 0 0 0 0 0 0 0 0 0 0 0 0 0 0 0 0 0 0 0 0 0 0 0 0 0 0 0 0 0 0 0
0 0 0 0 0 0 0 0 0 0 0 0 0 0 0 0 0 0 0 0 0 0 0 0 0 0 0 0 0 0 0 0 0 0 0 -0 0 0 0 0 0 0 0
0 0 0 0 0 0 0 0 0 0 0 0 0 0 0 0 0 0 0 0 0 0 0 0 0 0 0 0 0 0 0 0 0 0 0 0 0 0 0 0 0 0 0
0 0 0 0 0 0 0 0 0 0 0 0 0 0 0 0 0 0 0 0 0 0 0 0 0 0 0 0 0 0 0 0 0 0 0 0 0 0 0 0 0 0 0
0 0 0 0 0 0 0 0 0 0 0 0 0 0 0 0 0 0 0 0 0 0 0 0 0 0 0 0 0 0 0 0 0 0 0 0 0 0 0 0 0 0 0
Wind_Speed_500mb
43 46 44 33 24 27 26 30 19 24 23 33 35 31 28 28 28 32 36 39 38 40 41 38 36 36 37 37 36 35 34 34 33 33 31 28 25 24 24 25 25 26 27
41 49 45 42 33 26 23 26 31 35 37 33 29 27 29 32 35 35 32 30 39 43 45 44 38 40 42 41 42 40 39 38 38 36 37 36 33 31 28 27 30 27 31
50 42 39 41 50 33 37 30 26 31 34 32 34 35 38 39 35 35 34 39 42 43 45 49 47 43 43 45 48 46 45 45 43 41 39 40 40 40 38 34 33 33 31
49 40 44 37 38 38 37 44 33 42 39 32 27 27 31 34 32 37 40 47 45 46 46 50 55 54 57 50 53 54 54 53 49 47 44 43 44 45 45 42 39 38 36
43 45 35 39 37 37 36 29 27 26 31 34 37 36 35 42 40 36 42 48 51 52 47 46 46 54 60 62 58 59 63 61 57 55 51 50 50 50 48 47 45 45 41
24 53 38 51 34 44 30 30 28 35 33 36 37 33 36 35 35 34 42 43 45 46 48 53 52 54 58 57 54 58 55 61 61 65 61 59 57 58 54 50 49 49 47
12 38 8 46 17 24 39 34 26 35 48 47 45 44 44 35 32 39 42 44 45 46 49 39 44 64 54 47 56 59 45 42 48 52 52 56 65 59 59 56 53 55 52
23 56 33 33 35 35 32 23 25 28 37 44 38 28 33 35 30 20 9 20 46 40 44 48 47 56 57 54 59 60 56 56 64 54 53 46 50 51 59 62 58 55 52
2 17 46 20 36 50 72 32 48 49 49 48 32 31 14 16 28 31 34 33 33 38 36 40 43 44 52 54 62 63 57 50 41 47 51 53 55 55 60 63 58 52 53
34 37 43 34 55 71 61 47 42 55 53 48 41 41 33 33 26 34 46 50 45 38 34 39 53 56 47 49 53 47 43 49 57 53 47 53 52 51 52 56 57 53 57
76 64 43 51 77 79 57 54 57 47 42 34 32 29 27 29 29 32 48 57 41 45 44 40 38 37 34 38 37 31 30 39 49 47 44 47 50 51 45 49 60 66 63
65 79 75 73 76 79 60 56 50 47 45 39 37 40 45 43 46 38 41 44 47 45 38 44 47 48 52 47 45 48 49 42 43 47 46 51 59 57 58 60 61 66 65
62 71 76 67 37 49 62 55 57 53 45 43 41 43 47 40 41 43 43 50 49 56 58 59 58 62 61 55 49 48 46 52 46 38 47 49 52 53 53 55 56 63 64
58 50 64 51 48 55 56 53 53 49 40 39 39 40 40 40 37 39 40 42 51 53 49 47 43 58 55 56 59 51 41 39 47 54 55 60 62 61 56 54 52 54 59
56 55 64 39 42 50 61 52 47 41 36 42 43 44 42 37 32 31 30 35 45 57 57 54 53 53 52 52 55 50 49 58 61 66 69 68 66 50 47 56 52 47 45
46 31 47 39 49 45 46 49 43 39 42 44 44 40 39 36 38 39 38 40 45 55 70 55 54 51 50 49 45 50 59 62 59 57 60 48 50 54 50 47 55 57 50
27 22 33 38 44 46 45 46 44 41 40 35 39 41 42 45 49 53 52 53 53 52 64 64 60 62 65 73 82 75 51 47 49 53 45 56 58 60 55 54 50 69 66
16 12 15 25 29 31 33 40 43 44 45 49 53 56 57 57 60 58 56 62 63 63 67 76 71 65 62 50 52 60 67 71 65 58 54 64 56 61 52 54 61 68 70
5 9 17 22 28 31 34 41 46 51 59 62 60 66 64 63 66 69 70 69 65 66 64 70 77 69 73 77 69 57 57 65 55 62 59 50 49 50 50 54 54 55 65
20 25 29 31 33 40 43 49 53 57 60 61 59 64 68 74 77 76 76 79 77 80 79 81 81 74 66 53 55 60 60 45 54 48 53 47 51 59 51 47 50 50 53
33 36 38 43 47 50 51 52 59 62 68 71 74 77 84 86 81 76 76 79 81 84 83 77 77 72 62 51 50 57 70 73 67 63 79 63 56 56 51 45 48 49 51
40 46 51 56 60 65 68 67 73 80 85 87 90 92 90 81 73 74 91 98 96 91 92 87 85 81 82 85 82 68 74 63 68 72 64 62 55 51 62 50 47 51 53
54 59 62 68 72 73 74 75 76 82 88 95 98 93 89 82 75 75 76 80 79 80 89 101 107 104 93 84 82 70 64 65 71 72 71 75 60 54 52 53 48 45 59
60 62 63 60 61 64 64 67 72 78 85 88 87 84 80 80 78 77 83 94 96 91 85 85 95 88 92 79 80 75 67 68 78 74 63 67 56 60 42 47 50 45 44
64 69 69 63 56 55 56 64 71 78 84 87 89 88 88 92 94 88 79 82 88 96 96 101 80 75 72 78 87 65 66 68 76 77 65 55 60 54 42 32 54 49 44
50 48 54 61 68 74 76 77 75 77 87 92 94 93 83 65 52 51 56 61 70 79 98 92 74 74 88 78 55 60 62 67 76 75 68 55 62 56 40 52 55 45 41
Wind_Direction_500mb
207 216 210 233 246 251 234 246 234 266 261 230 243 241 251 255 249 241 237 254 269 284 289 288 276 271 270 270 271 269 266 268 268 268 268 269 264 257 262 268 270 267 264
204 228 223 215 228 232 235 243 229 229 239 255 255 266 266 261 261 263 266 263 271 275 280 288 290 277 269 270 270 269 268 266 266 265 264 266 266 262 261 264 266 268 264
216 228 233 216 218 207 217 222 229 237 238 247 246 241 254 272 287 280 275 272 265 269 278 283 288 284 282 276 273 271 272 270 268 265 263 262 262 262 263 260 262 262 263
228 231 223 232 229 222 231 229 231 231 251 267 276 279 279 280 285 286 282 277 272 262 270 283 285 285 292 287 284 278 275 273 272 268 267 265 264 261 262 262 258 259 259
240 217 230 223 234 221 221 234 241 244 256 264 263 267 267 266 267 271 267 267 275 280 281 269 280 288 288 287 289 288 281 276 272 268 268 268 267 263 263 263 259 257 257
215 196 230 231 240 206 217 230 228 242 245 248 248 250 254 254 263 270 271 274 278 282 281 283 286 280 276 279 289 298 292 284 279 276 271 270 268 262 261 262 260 259 256
246 190 238 255 252 231 219 227 236 278 271 262 262 261 265 269 273 290 284 279 278 277 268 284 291 278 281 288 280 280 294 288 276 278 276 277 272 267 262 264 266 262 253
299 267 201 269 288 261 231 263 238 242 262 263 262 267 283 282 269 252 216 282 273 288 289 284 297 279 281 289 283 285 284 284 283 275 277 276 273 265 269 266 264 264 255
199 223 226 267 266 270 249 243 242 235 249 261 264 239 266 255 272 259 273 288 263 272 278 282 279 280 281 291 293 293 290 278 280 281 275 266 267 272 268 266 257 258 256
257 223 230 221 230 235 226 226 221 240 238 227 227 245 259 278 275 293 299 306 310 296 300 308 291 291 292 301 295 281 299 294 291 289 287 277 266 272 268 263 249 252 254
241 234 222 199 223 231 225 225 227 217 226 226 215 239 254 251 262 283 288 303 301 297 300 304 303 288 290 292 293 313 303 301 292 288 291 299 298 273 259 258 254 252 250
231 233 236 221 238 222 218 221 216 222 226 225 229 232 239 251 261 274 283 288 295 300 299 284 283 285 284 292 306 310 303 314 307 303 301 300 303 283 263 261 259 252 247
222 225 224 225 229 240 219 213 217 226 226 228 232 236 244 255 258 265 280 285 294 288 288 290 292 287 287 289 293 292 293 306 304 298 293 296 299 300 269 261 256 251 247
237 223 211 215 257 214 221 220 215 224 229 238 247 253 259 267 274 277 272 283 293 293 291 292 286 297 301 300 288 290 289 287 293 298 300 296 295 293 280 270 256 247 241
233 219 207 224 217 219 216 220 217 233 240 245 250 261 267 272 278 281 280 274 279 294 290 291 293 289 296 304 299 299 294 284 287 287 289 289 290 290 289 272 247 238 229
213 201 203 200 195 208 211 222 229 231 236 251 262 269 268 274 277 277 275 274 274 277 285 288 289 292 290 285 286 287 295 293 287 295 296 292 290 287 284 280 252 233 228
163 169 171 194 200 210 217 223 236 230 233 247 258 262 266 269 266 269 272 271 268 272 279 282 282 283 286 279 281 291 300 302 298 302 295 289 280 277 273 273 272 236 233
160 142 190 218 229 233 241 249 255 263 257 259 256 259 266 274 274 271 270 272 272 275 276 282 288 292 294 293 283 286 290 290 294 294 294 306 277 271 271 273 276 244 232
179 230 244 247 256 264 266 269 267 267 272 269 267 263 262 262 264 270 267 261 260 265 268 271 277 278 278 280 287 289 294 295 290 292 298 287 290 284 277 274 275 240 231
263 255 256 258 260 262 260 260 261 263 267 271 273 272 273 269 266 267 266 265 264 265 265 267 270 276 280 278 280 291 299 294 287 281 290 280 293 279 277 267 258 239 228
280 279 278 276 275 272 270 275 276 273 271 270 268 270 270 268 267 268 266 265 265 264 263 263 267 271 266 270 278 281 282 291 299 292 287 291 290 280 276 271 255 238 231
290 284 285 283 281 278 272 265 263 268 271 274 275 270 267 264 264 270 269 267 265 267 268 264 263 262 266 271 275 278 281 286 291 282 293 293 287 283 273 265 250 238 239
283 284 285 285 284 283 281 281 280 280 276 275 277 281 280 276 273 271 271 268 269 268 266 268 265 263 260 261 266 270 274 281 295 288 286 288 284 278 279 255 249 242 244
288 291 291 287 285 289 290 290 285 281 278 278 278 279 280 281 280 281 275 269 265 261 262 268 265 272 261 256 262 266 274 286 293 284 278 286 277 274 274 260 238 247 244
291 290 293 298 297 289 281 277 277 278 278 279 279 279 277 277 277 279 271 270 271 270 267 267 268 270 268 262 264 261 267 277 289 285 280 280 268 280 256 249 226 239 247
302 291 281 278 278 279 277 283 286 284 282 282 281 283 284 284 289 284 278 276 279 280 271 267 266 260 256 258 242 252 262 275 284 284 273 261 270 270 270 244 238 234 235
Wind_Speed_850mb
43 46 44 33 24 27 26 30 19 24 23 33 35 31 28 28 28 32 36 39 38 40 41 38 36 36 37 37 36 35 34 34 33 33 31 28 25 24 24 25 25 26 27
41 49 45 42 33 26 23 26 31 35 37 33 29 27 29 32 35 35 32 30 39 43 45 44 38 40 42 41 42 40 39 38 38 36 37 36 33 31 28 27 30 27 31
50 42 39 41 50 33 37 30 26 31 34 32 34 35 38 39 35 35 34 39 42 43 45 49 47 43 43 45 48 46 45 45 43 41 39 40 40 40 38 34 33 33 31
49 40 44 37 38 38 37 44 33 42 39 32 27 27 31 34 32 37 40 47 45 46 46 50 55 54 57 50 53 54 54 53 49 47 44 43 44 45 45 42 39 38 36
43 45 35 39 37 37 36 29 27 26 31 34 37 36 35 42 40 36 42 48 51 52 47 46 46 54 60 62 58 59 63 61 57 55 51 50 50 50 48 47 45 45 41
24 53 38 51 34 44 30 30 28 35 33 36 37 33 36 35 35 34 42 43 45 46 48 53 52 54 58 57 54 58 55 61 61 65 61 59 57 58 54 50 49 49 47
12 38 8 46 17 24 39 34 26 35 48 47 45 44 44 35 32 39 42 44 45 46 49 39 44 64 54 47 56 59 45 42 48 52 52 56 65 59 59 56 53 55 52
23 56 33 33 35 35 32 23 25 28 37 44 38 28 33 35 30 20 9 20 46 40 44 48 47 56 57 54 59 60 56 56 64 54 53 46 50 51 59 62 58 55 52
2 17 46 20 36 50 72 32 48 49 49 48 32 31 14 16 28 31 34 33 33 38 36 40 43 44 52 54 62 63 57 50 41 47 51 53 55 55 60 63 58 52 53
34 37 43 34 55 71 61 47 42 55 53 48 41 41 33 33 26 34 46 50 45 38 34 39 53 56 47 49 53 47 43 49 57 53 47 53 52 51 52 56 57 53 57
76 64 43 51 77 79 57 54 57 47 42 34 32 29 27 29 29 32 48 57 41 45 44 40 38 37 34 38 37 31 30 39 49 47 44 47 50 51 45 49 60 66 63
65 79 75 73 76 79 60 56 50 47 45 39 37 40 45 43 46 38 41 44 47 45 38 44 47 48 52 47 45 48 49 42 43 47 46 51 59 57 58 60 61 66 65
62 71 76 67 37 49 62 55 57 53 45 43 41 43 47 40 41 43 43 50 49 56 58 59 58 62 61 55 49 48 46 52 46 38 47 49 52 53 53 55 56 63 64
58 50 64 51 48 55 56 53 53 49 40 39 39 40 40 40 37 39 40 42 51 53 49 47 43 58 55 56 59 51 41 39 47 54 55 60 62 61 56 54 52 54 59
56 55 64 39 42 50 61 52 47 41 36 42 43 44 42 37 32 31 30 35 45 57 57 54 53 53 52 52 55 50 49 58 61 66 69 68 66 50 47 56 52 47 45
46 31 47 39 49 45 46 49 43 39 42 44 44 40 39 36 38 39 38 40 45 55 70 55 54 51 50 49 45 50 59 62 59 57 60 48 50 54 50 47 55 57 50
27 22 33 38 44 46 45 46 44 41 40 35 39 41 42 45 49 53 52 53 53 52 64 64 60 62 65 73 82 75 51 47 49 53 45 56 58 60 55 54 50 69 66
16 12 15 25 29 31 33 40 43 44 45 49 53 56 57 57 60 58 56 62 63 63 67 76 71 65 62 50 52 60 67 71 65 58 54 64 56 61 52 54 61 68 70
5 9 17 22 28 31 34 41 46 51 59 62 60 66 64 63 66 69 70 69 65 66 64 70 77 69 73 77 69 57 57 65 55 62 59 50 49 50 50 54 54 55 65
20 25 29 31 33 40 43 49 53 57 60 61 59 64 68 74 77 76 76 79 77 80 79 81 81 74 66 53 55 60 60 45 54 48 53 47 51 59 51 47 50 50 53
33 36 38 43 47 50 51 52 59 62 68 71 74 77 84 86 81 76 76 79 81 84 83 77 77 72 62 51 50 57 70 73 67 63 79 63 56 56 51 45 48 49 51
40 46 51 56 60 65 68 67 73 80 85 87 90 92 90 81 73 74 91 98 96 91 92 87 85 81 82 85 82 68 74 63 68 72 64 62 55 51 62 50 47 51 53
54 59 62 68 72 73 74 75 76 82 88 95 98 93 89 82 75 75 76 80 79 80 89 101 107 104 93 84 82 70 64 65 71 72 71 75 60 54 52 53 48 45 59
60 62 63 60 61 64 64 67 72 78 85 88 87 84 80 80 78 77 83 94 96 91 85 85 95 88 92 79 80 75 67 68 78 74 63 67 56 60 42 47 50 45 44
64 69 69 63 56 55 56 64 71 78 84 87 89 88 88 92 94 88 79 82 88 96 96 101 80 75 72 78 87 65 66 68 76 77 65 55 60 54 42 32 54 49 44
50 48 54 61 68 74 76 77 75 77 87 92 94 93 83 65 52 51 56 61 70 79 98 92 74 74 88 78 55 60 62 67 76 75 68 55 62 56 40 52 55 45 41
Wind_Direction_850mb
207 216 210 233 246 251 234 246 234 266 261 230 243 241 251 255 249 241 237 254 269 284 289 288 276 271 270 270 271 269 266 268 268 268 268 269 264 257 262 268 270 267 264
204 228 223 215 228 232 235 243 229 229 239 255 255 266 266 261 261 263 266 263 271 275 280 288 290 277 269 270 270 269 268 266 266 265 264 266 266 262 261 264 266 268 264
216 228 233 216 218 207 217 222 229 237 238 247 246 241 254 272 287 280 275 272 265 269 278 283 288 284 282 276 273 271 272 270 268 265 263 262 262 262 263 260 262 262 263
228 231 223 232 229 222 231 229 231 231 251 267 276 279 279 280 285 286 282 277 272 262 270 283 285 285 292 287 284 278 275 273 272 268 267 265 264 261 262 262 258 259 259
240 217 230 223 234 221 221 234 241 244 256 264 263 267 267 266 267 271 267 267 275 280 281 269 280 288 288 287 289 288 281 276 272 268 268 268 267 263 263 263 259 257 257
215 196 230 231 240 206 217 230 228 242 245 248 248 250 254 254 263 270 271 274 278 282 281 283 286 280 276 279 289 298 292 284 279 276 271 270 268 262 261 262 260 259 256
246 190 238 255 252 231 219 227 236 278 271 262 262 261 265 269 273 290 284 279 278 277 268 284 291 278 281 288 280 280 294 288 276 278 276 277 272 267 262 264 266 262 253
299 267 201 269 288 261 231 263 238 242 262 263 262 267 283 282 269 252 216 282 273 288 289 284 297 279 281 289 283 285 284 284 283 275 277 276 273 265 269 266 264 264 255
199 223 226 267 266 270 249 243 242 235 249 261 264 239 266 255 272 259 273 288 263 272 278 282 279 280 281 291 293 293 290 278 280 281 275 266 267 272 268 266 257 258 256
257 223 230 221 230 235 226 226 221 240 238 227 227 245 259 278 275 293 299 306 310 296 300 308 291 291 292 301 295 281 299 294 291 289 287 277 266 272 268 263 249 252 254
241 234 222 199 223 231 225 225 227 217 226 226 215 239 254 251 262 283 288 303 301 297 300 304 303 288 290 292 293 313 303 301 292 288 291 299 298 273 259 258 254 252 250
231 233 236 221 238 222 218 221 216 222 226 225 229 232 239 251 261 274 283 288 295 300 299 284 283 285 284 292 306 310 303 314 307 303 301 300 303 283 263 261 259 252 247
222 225 224 225 229 240 219 213 217 226 226 228 232 236 244 255 258 265 280 285 294 288 288 290 292 287 287 289 293 292 293 306 304 298 293 296 299 300 269 261 256 251 247
237 223 211 215 257 214 221 220 215 224 229 238 247 253 259 267 274 277 272 283 293 293 291 292 286 297 301 300 288 290 289 287 293 298 300 296 295 293 280 270 256 247 241
233 219 207 224 217 219 216 220 217 233 240 245 250 261 267 272 278 281 280 274 279 294 290 291 293 289 296 304 299 299 294 284 287 287 289 289 290 290 289 272 247 238 229
213 201 203 200 195 208 211 222 229 231 236 251 262 269 268 274 277 277 275 274 274 277 285 288 289 292 290 285 286 287 295 293 287 295 296 292 290 287 284 280 252 233 228
163 169 171 194 200 210 217 223 236 230 233 247 258 262 266 269 266 269 272 271 268 272 279 282 282 283 286 279 281 291 300 302 298 302 295 289 280 277 273 273 272 236 233
160 142 190 218 229 233 241 249 255 263 257 259 256 259 266 274 274 271 270 272 272 275 276 282 288 292 294 293 283 286 290 290 294 294 294 306 277 271 271 273 276 244 232
179 230 244 247 256 264 266 269 267 267 272 269 267 263 262 262 264 270 267 261 260 265 268 271 277 278 278 280 287 289 294 295 290 292 298 287 290 284 277 274 275 240 231
263 255 256 258 260 262 260 260 261 263 267 271 273 272 273 269 266 267 266 265 264 265 265 267 270 276 280 278 280 291 299 294 287 281 290 280 293 279 277 267 258 239 228
280 279 278 276 275 272 270 275 276 273 271 270 268 270 270 268 267 268 266 265 265 264 263 263 267 271 266 270 278 281 282 291 299 292 287 291 290 280 276 271 255 238 231
290 284 285 283 281 278 272 265 263 268 271 274 275 270 267 264 264 270 269 267 265 267 268 264 263 262 266 271 275 278 281 286 291 282 293 293 287 283 273 265 250 238 239
283 284 285 285 284 283 281 281 280 280 276 275 277 281 280 276 273 271 271 268 269 268 266 268 265 263 260 261 266 270 274 281 295 288 286 288 284 278 279 255 249 242 244
288 291 291 287 285 289 290 290 285 281 278 278 278 279 280 281 280 281 275 269 265 261 262 268 265 272 261 256 262 266 274 286 293 284 278 286 277 274 274 260 238 247 244
291 290 293 298 297 289 281 277 277 278 278 279 279 279 277 277 277 279 271 270 271 270 267 267 268 270 268 262 264 261 267 277 289 285 280 280 268 280 256 249 226 239 247
302 291 281 278 278 279 277 283 286 284 282 282 281 283 284 284 289 284 278 276 279 280 271 267 266 260 256 258 242 252 262 275 284 284 273 261 270 270 270 244 238 234 235